Weather in Archangelos

Greece     36°13′15″N   28°06′51″E
temp.,
°C
wind,
m/s
gust,
m/s
humid.,
%
clouds,
%
prec.,
mm/h
press.,
hPa
HPBL,
m
12 april, mon
mon1200:00+9nw46490 0.0 1020161
03:00+8nw33560 0.0 102054
06:00+8nw32600 0.0 101938
09:00+13nnw35440 0.0 1020552
12:00+17nnw33340 0.0 1020988
15:00+18sw22320 0.0 10191300
18:00+16wnw22450 0.0 1019794
21:00+10wnw11660 0.0 102026
13 april, tue
tue1300:00+9sw11680 0.0 102013
03:00+9wsw11750 0.0 102014
06:00+9w11825 0.0 102014
09:00+15ese11537 0.0 1020440
12:00+19sse11435 0.0 10201242
15:00+20se014813 0.0 10191164
18:00+17ne115533 0.0 1019711
21:00+12sw00775 0.0 102018
14 april, wed
wed1400:00+11sse11824 0.0 102020
03:00+10sse228520 0.0 101936
06:00+11sse3285100 0.0 101853
09:00+15sse4563100 0.0 1019684
12:00+18sse675195 0.0 1018993
15:00+18sse785025 0.0 1017973
18:00+16sse5663100 0.0 1017795
21:00+13sse3586100 0.0 1017181
15 april, thu
thu1500:00+12sse3391100 0.0 101772
03:00+12sse239079 0.0 1016132
06:00+12sse239033 0.0 1016142
09:00+16se347121 0.0 1016763
12:00+19se44531 0.0 10161195
15:00+20se225117 0.0 10161287
18:00+18se33607 0.0 1015871
21:00+12se11905 0.0 101619
16 april, fri
fri1600:00+11e119188 0.0 101613
03:00+11sw0191100 0.0 101515
06:00+11ese0190100 0.0 101413
09:00+16se116693 0.0 1016388
12:00+21ne0146100 0.0 10161255
15:00+21ese1150100 0.0 10151188
18:00+19e12585 0.0 1015540
21:00+13ene0080100 0.0 101611